[[{"header":{"parameterUnit":"m.s-1","parameterCategory":1,"la1":30.2991,"la2":30.254,"lo1":-89.0895,"lo2":-89.0444,"dy":0.0017,"dx":0.0017,"nx":28,"ny":28,"refTime":"2024-03-11T09:00:00:Z","depth":0,"parameterNumber":2,"parameterNumberName":"U-component_of_WINDS"},"data":[0,0,0,0,0,0,0,0,0,0,0,0,0,0,0,0,0,0,0,0,0,0,0,0,0,0,0,0,0,0,0,0,0,0,0,0,0,0,0,0,0,0,0,0,0,0,0,0,0,0,0,0,0,0,0,0,0,0,0.0024,0.0024,0,0.0049,0.0049,0.0049,0.0035,0.0035,0.0034,0.0033,0.0058,0.006,0.0061,0,0,0,0,0,0,0,0,0,0,0,0,0,-0.0036,-0.0035,0.0024,0.0024,0.0024,0.0048,0.0049,0.0049,0.0035,0.0034,0.0034,0.0033,0.0058,0.006,0.0061,0,0,0,0,0,0,0,0,0,0,0,0,0,-0.0011,-0.0035,0.0024,0.002,0.002,0.0048,0.0049,0.0049,0.0036,0.0034,0.0033,0.0032,0.0058,0.0059,0.0061,0.0094,0,0,0.0067,0.0068,0,0,0,0,0,0,0,0,-0.0012,-0.0009,0.002,0.0021,0.0021,0.0038,0.0037,0.0064,0.0036,0.003,0.0033,0.0032,0.0052,0.0055,0.0062,0.0095,0.0096,0.0068,0.0069,0.007,0.007,0,0,0,0,0,0,0,-0.0014,-0.001,0.0033,0.0021,0.0021,0.0017,0.002,0.0042,0.0047,0.003,0.0029,0.0032,0.0052,0.006,0.0062,0.0097,0.0068,0.0069,0.007,0.0071,0.0158,0.0159,0,0,0,0,0,0,-0.0015,-0.0011,0.0033,0.0034,0.0001,0.0019,0.0022,0.0033,0.0046,0.0047,0.0033,0.0032,0.0057,0.006,0.0063,0.0102,0.007,0.0071,0.0073,0.0157,0.0158,0.0159,0,0,0,0,0,0,-0.0017,-0.0011,0.0032,0.0011,0.0017,0.0021,0.0034,0.0034,0.0042,0.0049,0.0049,0.004,0.0056,0.006,0.0086,0.0102,0.0072,0.0074,0.0155,0.0157,0.0159,0.018,0,0,0,0,0,0,-0.0018,-0.0012,0.0001,0.0012,0.0018,0.0055,0.0035,0.0036,0.0045,0.0043,0.0055,0.0056,0.0056,0.0083,0.0088,0.0104,0.0076,0.0154,0.0156,0.0158,0.0177,0.0182,0.0185,0,0,0,0,0,-0.002,0.0006,0.0002,0.0007,0.0034,0.0056,0.0059,0.0058,0.0047,0.0059,0.0063,0.0056,0.01,0.0086,0.0092,0.0109,0.0153,0.0156,0.0158,0.0176,0.0181,0.0185,0,0,0,0,0,0,-0.0003,0.0007,0.0003,0.0033,0.0044,0.0053,0.0069,0.0064,0.0078,0.0075,0.0074,0.0076,0.0103,0.0109,0.0093,0.0141,0.0125,0.0128,0.0136,0.0141,0.0145,0.0143,0.0077,0,0,0,0,0,0.0004,0.0022,0.003,0.0056,0.0061,0.0065,0.0074,0.0072,0.0083,0.0088,0.0094,0.0104,0.012,0.0131,0.0146,0.0178,0.018,0.0193,0.0196,0.02,0.0203,0.0219,0.0225,0.0168,0.0168,0.0167,0,0,0.002,0.0027,0.0038,0.006,0.0067,0.0085,0.0068,0.0088,0.0101,0.009,0.0115,0.012,0.0132,0.0161,0.0174,0.0166,0.0219,0.0203,0.0205,0.0207,0.0223,0.0228,0.0233,0.0169,0.0169,0.0169,0,0,0.0057,0.0064,0.0087,0.0095,0.0107,0.0109,0.0115,0.0125,0.0128,0.0153,0.0145,0.0161,0.0189,0.0197,0.0205,0.0245,0.0238,0.025,0.0271,0.0287,0.0291,0.0295,0.0309,0.0314,0.0253,0.0253,0.0253,0,0.0074,0.0101,0.0099,0.0119,0.0128,0.012,0.0142,0.015,0.0167,0.0173,0.0164,0.0199,0.0206,0.0237,0.0246,0.0253,0.0259,0.0249,0.0291,0.0295,0.0298,0.0311,0.0317,0.0255,0.0254,0.0254,0.0254,0,0.0121,0.014,0.0156,0.0172,0.0184,0.0205,0.0206,0.0218,0.0215,0.0218,0.0243,0.0251,0.0268,0.0275,0.0273,0.0305,0.03,0.0291,0.0275,0.0305,0.0317,0.0322,0.0256,0.0256,0.0256,0.0255,0,0,0.017,0.0185,0.0191,0.0198,0.021,0.0224,0.0245,0.0261,0.0271,0.0283,0.0299,0.0323,0.0315,0.0324,0.0322,0.0337,0.0367,0.0326,0.0326,0.0333,0.0403,0.0409,0.0415,0.0363,0.0364,0.0364,0.0401,0,0.0207,0.0243,0.0242,0.0276,0.0292,0.0284,0.0302,0.0312,0.0315,0.0329,0.0333,0.0349,0.0337,0.0343,0.0356,0.036,0.0381,0.0358,0.0378,0.0379,0.0375,0.0421,0.0428,0.0462,0.0406,0.0407,0.0408,0,0.0255,0.0268,0.0304,0.0313,0.032,0.0337,0.0351,0.0365,0.0376,0.0377,0.0387,0.0383,0.0403,0.0387,0.0415,0.0399,0.0407,0.0411,0.0412,0.0413,0.0395,0.0423,0.0474,0.0479,0.0415,0.0415,0.0414,0,0.0286,0.0313,0.0337,0.0344,0.0356,0.0367,0.0373,0.0382,0.0392,0.0405,0.0411,0.0426,0.0434,0.0445,0.0445,0.0433,0.0474,0.0457,0.0475,0.0475,0.0483,0.0483,0.0535,0.049,0.0489,0.0489,0.0489,0,0.0328,0.0349,0.0351,0.0366,0.039,0.0389,0.0412,0.0417,0.0425,0.0441,0.0435,0.0449,0.0449,0.0463,0.0464,0.0486,0.049,0.0492,0.0491,0.0492,0.0492,0.0497,0.0494,0.0491,0.049,0.049,0.049,0,0.0366,0.0368,0.0394,0.0404,0.0407,0.0424,0.0432,0.0446,0.0448,0.0468,0.0472,0.0476,0.0493,0.0494,0.0514,0.0514,0.0541,0.0539,0.0538,0.0537,0.0555,0.0553,0.0612,0.0619,0.0569,0.057,0.057,0,0.0392,0.0409,0.042,0.043,0.0436,0.0452,0.0462,0.0461,0.0472,0.0485,0.0497,0.0513,0.0526,0.0554,0.0558,0.0573,0.057,0.059,0.0573,0.0572,0.057,0.0569,0.057,0.0593,0.0594,0.0594,0.0595,0,0.0438,0.0438,0.0453,0.0468,0.0479,0.0491,0.0502,0.051,0.0511,0.0523,0.054,0.055,0.057,0.0586,0.06,0.0606,0.06,0.06,0.0605,0.0605,0.0604,0.0604,0.0547,0.0599,0.0598,0.0598,0.0598,0.0598,0.0471,0.0485,0.0495,0.0511,0.0519,0.0529,0.0543,0.0547,0.0561,0.0577,0.0576,0.0595,0.0605,0.0624,0.063,0.0645,0.0638,0.0645,0.0647,0.0648,0.065,0.0602,0.0648,0.0647,0.0647,0.0647,0.0647,0,0.0516,0.0522,0.0537,0.0552,0.0564,0.0558,0.057,0.0581,0.0597,0.0607,0.062,0.064,0.0655,0.0661,0.0676,0.0686,0.0684,0.069,0.0689,0.069,0.0655,0.065,0.0692,0.0692,0.0692,0.0692,0.0692,0.0692,0.054,0.0564,0.0565,0.0592,0.0598,0.0616,0.0623,0.0633,0.064,0.0662,0.0675,0.0679,0.0687,0.0703,0.0716,0.0718,0.0723,0.073,0.0731,0.0698,0.0693,0.0689,0.0683,0.0732,0.0732,0.0764,0.0765,0.0765]},{"header":{"parameterUnit":"m.s-1","parameterCategory":1,"la1":30.2991,"la2":30.254,"lo1":-89.0895,"lo2":-89.0444,"dy":0.0017,"dx":0.0017,"nx":28,"ny":28,"refTime":"2024-03-11T09:00:00:Z","depth":0,"parameterNumber":3,"parameterNumberName":"V-component_of_WINDS"},"data":[0,0,0,0,0,0,0,0,0,0,0,0,0,0,0,0,0,0,0,0,0,0,0,0,0,0,0,0,0,0,0,0,0,0,0,0,0,0,0,0,0,0,0,0,0,0,0,0,0,0,0,0,0,0,0,0,0,0,1.4477,1.4478,0,1.4569,1.457,1.4571,1.4582,1.4581,1.458,1.4579,1.4671,1.4675,1.4678,0,0,0,0,0,0,0,0,0,0,0,0,0,1.4306,1.4309,1.4477,1.4478,1.4479,1.4569,1.457,1.4572,1.4582,1.4581,1.4579,1.4578,1.467,1.4674,1.4678,0,0,0,0,0,0,0,0,0,0,0,0,0,1.4387,1.431,1.4476,1.4495,1.4497,1.4569,1.457,1.4572,1.4582,1.4581,1.4579,1.4578,1.4669,1.4674,1.4679,1.4737,0,0,1.4694,1.4696,0,0,0,0,0,0,0,0,1.4383,1.4394,1.4491,1.4494,1.4497,1.4563,1.4544,1.4627,1.4582,1.455,1.4579,1.4577,1.4636,1.4644,1.4664,1.4742,1.4746,1.4694,1.4698,1.47,1.4701,0,0,0,0,0,0,0,1.4377,1.439,1.4513,1.4492,1.4496,1.4498,1.4508,1.456,1.46,1.4553,1.4553,1.4564,1.4637,1.4659,1.4666,1.4747,1.4694,1.4699,1.4702,1.4704,1.4877,1.4878,0,0,0,0,0,0,1.4368,1.4385,1.451,1.4516,1.4435,1.4502,1.4513,1.4543,1.4599,1.4606,1.4566,1.4565,1.4651,1.4661,1.467,1.4742,1.47,1.4704,1.4707,1.4875,1.4877,1.4879,0,0,0,0,0,0,1.4365,1.438,1.4507,1.4451,1.4467,1.4506,1.4539,1.4545,1.4567,1.4609,1.4616,1.4581,1.4651,1.4663,1.4721,1.4745,1.4707,1.4711,1.4873,1.4876,1.4878,1.4886,0,0,0,0,0,0,1.436,1.4378,1.4401,1.4451,1.447,1.4557,1.4541,1.4548,1.4576,1.4576,1.4625,1.4632,1.4651,1.4713,1.4726,1.4751,1.4715,1.4871,1.4875,1.4877,1.4884,1.4888,1.4892,0,0,0,0,0,1.4354,1.44,1.4403,1.4418,1.45,1.4558,1.4569,1.459,1.4578,1.4601,1.4628,1.463,1.474,1.4719,1.4733,1.476,1.487,1.4874,1.4877,1.4882,1.4887,1.4892,0,0,0,0,0,0,1.4351,1.4406,1.441,1.4474,1.4511,1.456,1.459,1.4595,1.4636,1.4634,1.4658,1.4669,1.4726,1.4749,1.4724,1.482,1.4804,1.481,1.4803,1.4808,1.4813,1.4805,1.4719,0,0,0,0,0,1.4358,1.4401,1.4447,1.4498,1.4517,1.455,1.4576,1.4589,1.4629,1.4644,1.4675,1.4713,1.4756,1.4783,1.4825,1.4887,1.4898,1.4913,1.4917,1.4921,1.4926,1.496,1.4967,1.4891,1.4891,1.4891,0,0,1.4372,1.4408,1.4433,1.4499,1.4529,1.4572,1.4563,1.461,1.4642,1.4651,1.4708,1.4732,1.4775,1.4835,1.4863,1.4856,1.4949,1.4925,1.4928,1.4931,1.4964,1.4971,1.4978,1.4893,1.4893,1.4892,0,0,1.442,1.4452,1.4498,1.4529,1.4575,1.4597,1.4608,1.4656,1.4673,1.473,1.4738,1.4776,1.485,1.488,1.4905,1.4965,1.4968,1.4978,1.5,1.5033,1.5038,1.5044,1.5064,1.5071,1.4983,1.4983,1.4983,0,1.4432,1.4498,1.4521,1.4567,1.4595,1.4607,1.4653,1.4682,1.4739,1.4758,1.4749,1.4842,1.4872,1.4939,1.4954,1.4974,1.4986,1.4972,1.5036,1.5042,1.5047,1.5067,1.5074,1.4984,1.4984,1.4984,1.4983,0,1.451,1.4556,1.4587,1.4643,1.4675,1.4721,1.475,1.4779,1.479,1.4812,1.487,1.4906,1.4955,1.4972,1.4983,1.5041,1.5035,1.5031,1.5015,1.5055,1.5073,1.5081,1.4985,1.4985,1.4984,1.4984,0,0,1.4558,1.4626,1.4637,1.4663,1.4715,1.475,1.4796,1.4845,1.487,1.4909,1.4948,1.501,1.5006,1.5035,1.5049,1.5078,1.5122,1.507,1.5071,1.5078,1.5187,1.5189,1.5197,1.5124,1.5126,1.5127,1.5183,0,1.4612,1.4695,1.4717,1.4787,1.4829,1.4841,1.4881,1.4917,1.4939,1.4977,1.5001,1.5045,1.5038,1.5055,1.5084,1.511,1.5144,1.5106,1.516,1.5161,1.5147,1.5207,1.521,1.526,1.519,1.5192,1.5193,0,1.4685,1.4727,1.4801,1.4848,1.4866,1.4902,1.4948,1.4985,1.5026,1.504,1.5071,1.5083,1.513,1.5113,1.5178,1.5152,1.5175,1.5192,1.5194,1.5199,1.5179,1.5213,1.5277,1.5284,1.5205,1.5204,1.5203,0,1.4712,1.4786,1.4841,1.4862,1.4918,1.4942,1.4966,1.5006,1.5034,1.5074,1.5092,1.5137,1.5161,1.5196,1.5218,1.5204,1.5282,1.5266,1.5294,1.5293,1.5309,1.5307,1.5377,1.5325,1.5325,1.5325,1.5325,0,1.4769,1.4814,1.4853,1.4886,1.4937,1.4961,1.5011,1.5035,1.507,1.5107,1.512,1.5155,1.5183,1.5222,1.524,1.5291,1.5302,1.5314,1.5318,1.5312,1.5311,1.5327,1.5324,1.5327,1.5327,1.5326,1.5326,0,1.4807,1.4835,1.4895,1.4943,1.4956,1.4991,1.5032,1.5064,1.5087,1.5134,1.5146,1.5182,1.5227,1.5254,1.5312,1.5324,1.538,1.5383,1.5366,1.5368,1.5394,1.5391,1.5475,1.5487,1.5428,1.5429,1.5429,0,1.4841,1.4876,1.4928,1.4954,1.4979,1.5021,1.505,1.5075,1.5104,1.5153,1.5179,1.5226,1.5265,1.5337,1.5367,1.5411,1.5415,1.5442,1.5421,1.5414,1.5414,1.5411,1.5415,1.5445,1.5445,1.5446,1.5446,0,1.4898,1.491,1.4952,1.4998,1.5031,1.5069,1.5106,1.5126,1.5158,1.5189,1.5237,1.5267,1.5326,1.5372,1.5419,1.5443,1.5449,1.5452,1.5461,1.5455,1.5443,1.5449,1.5375,1.545,1.5449,1.5449,1.5449,1.5449,1.4935,1.4966,1.5007,1.5053,1.5083,1.5117,1.515,1.5177,1.5217,1.5267,1.528,1.5329,1.5369,1.5432,1.5457,1.5496,1.5491,1.5503,1.5506,1.5509,1.5509,1.5438,1.5504,1.5504,1.5504,1.5504,1.5504,0,1.4992,1.5019,1.506,1.5112,1.5147,1.5151,1.5192,1.5221,1.5265,1.5301,1.5339,1.5393,1.5438,1.5472,1.5517,1.5542,1.5546,1.5553,1.5551,1.5556,1.5511,1.5499,1.5549,1.5549,1.5549,1.5548,1.5548,1.5548,1.5026,1.5079,1.5096,1.5164,1.5191,1.524,1.5263,1.5294,1.5323,1.5383,1.542,1.5443,1.5478,1.5526,1.5567,1.5575,1.5591,1.5597,1.5606,1.5564,1.5559,1.5554,1.5543,1.5601,1.5601,1.5647,1.5648,1.5648]}]]